Time,TemperatureF,DewpointF,PressureIn,WindDirection,WindDirectionDegrees,WindSpeedMPH,WindSpeedGustMPH,Humidity,HourlyPrecipIn,Conditions,Clouds,dailyrainin,SolarRadiationWatts/m^2,SoftwareType,DateUTC
2013-01-26 13:00:00,52.0,28.0,29.82,South,172,10.0,-999.0,40,-99.99,,,-99.99,362.899994,,2013-01-26 20:00:00,
2013-01-26 13:52:00,52.0,28.0,29.82,South,172,10.0,-999.0,40,-99.99,,,-99.99,362.899994,,2013-01-26 20:52:00,
2013-01-26 14:00:00,51.0,28.0,29.80,SSW,211,11.0,-999.0,40,-99.99,,,-99.99,369.799988,,2013-01-26 21:00:00,
2013-01-26 14:52:00,51.0,28.0,29.80,SSW,211,11.0,-999.0,40,-99.99,,,-99.99,369.799988,,2013-01-26 21:52:00,
2013-01-26 15:00:00,48.0,31.0,29.80,South,182,12.0,-999.0,50,-99.99,,,-99.99,179.300003,,2013-01-26 22:00:00,
2013-01-26 15:52:00,48.0,31.0,29.80,South,182,12.0,-999.0,50,-99.99,,,-99.99,179.300003,,2013-01-26 22:52:00,
2013-01-26 16:00:00,45.0,31.0,29.79,South,170,12.0,-999.0,57,-99.99,,,-99.99,101.599998,,2013-01-26 23:00:00,
2013-01-26 16:52:00,45.0,31.0,29.79,South,170,12.0,-999.0,57,-99.99,,,-99.99,101.599998,,2013-01-26 23:52:00,
2013-01-26 17:00:00,43.0,30.0,29.77,South,174,11.0,-999.0,59,-99.99,,,-99.99,66.050003,,2013-01-27 00:00:00,
2013-01-26 17:52:00,43.0,30.0,29.77,South,174,11.0,-999.0,59,-99.99,,,-99.99,66.050003,,2013-01-27 00:52:00,
2013-01-26 18:00:00,40.0,29.0,29.78,SSW,192,7.0,-999.0,64,-99.99,,,-99.99,1.760000,,2013-01-27 01:00:00,
2013-01-26 18:52:00,40.0,29.0,29.78,SSW,192,7.0,-999.0,64,-99.99,,,-99.99,1.760000,,2013-01-27 01:52:00,
2013-01-26 19:00:00,35.0,31.0,29.82,WNW,284,12.0,-999.0,84,-99.99,,,-99.99,0.120000,,2013-01-27 02:00:00,
2013-01-26 19:52:00,35.0,31.0,29.82,WNW,284,12.0,-999.0,84,-99.99,,,-99.99,0.120000,,2013-01-27 02:52:00,
2013-01-26 20:00:00,34.0,32.0,29.82,NW,310,15.0,-999.0,92,-99.99,,,-99.99,0.150000,,2013-01-27 03:00:00,
2013-01-26 20:52:00,34.0,32.0,29.82,NW,310,15.0,-999.0,92,-99.99,,,-99.99,0.150000,,2013-01-27 03:52:00,
2013-01-26 21:00:00,32.0,32.0,29.84,NNW,328,12.0,-999.0,98,-99.99,,,-99.99,0.150000,,2013-01-27 04:00:00,
2013-01-26 21:52:00,32.0,32.0,29.84,NNW,328,12.0,-999.0,98,-99.99,,,-99.99,0.150000,,2013-01-27 04:52:00,
2013-01-26 22:00:00,32.0,32.0,29.84,NNW,335,8.0,-999.0,99,-99.99,,,-99.99,0.120000,,2013-01-27 05:00:00,
2013-01-26 22:52:00,32.0,32.0,29.84,NNW,335,8.0,-999.0,99,-99.99,,,-99.99,0.120000,,2013-01-27 05:52:00,
2013-01-26 23:00:00,31.0,31.0,29.84,East,81,4.0,-999.0,100,-99.99,,,-99.99,0.130000,,2013-01-27 06:00:00,
2013-01-26 23:52:00,31.0,31.0,29.84,East,81,4.0,-999.0,100,-99.99,,,-99.99,0.130000,,2013-01-27 06:52:00,